Fosston, MN

2:39 PM CST on November 22, 2017 (GMT -0600)
Fosston Municipal

Weather History for KFSE - October, 2011

Change the Weather History Date:

Monday, October 17, 2011

  Actual Average Record
Temperature  
Mean Temperature 42 °F -  
Max Temperature 51 °F 52 °F 79 °F (1956)
Min Temperature 33 °F 31 °F 13 °F (1972)
Degree Days  
Heating Degree Days 23    
Moisture  
Dew Point 29 °F    
Average Humidity 65    
Maximum Humidity 81    
Minimum Humidity 38    
Precipitation  
Precipitation 0.00 in - - ()
Sea Level Pressure  
Sea Level Pressure 29.83 in    
Wind  
Wind Speed 14 mph (WNW)    
Max Wind Speed 22 mph    
Max Gust Speed 31 mph    
Visibility 10 miles    
Events      
Averages and records for this station are not official NWS values.
T = Trace of Precipitation, MM = Missing Value Source: NWS Daily Summary

Daily Weather History Graph

Daily Weather History Graph

Search for Another Location

Airport or City:

Trip Planner

Search our weather history database for the weather conditions in past years. The results will help you decide how hot, cold, wet, or windy it might be!

Date:

Astronomy

Oct. 17, 2011 Rise Set
Actual Time 7:44 AM CDT 6:31 PM CDT
Civil Twilight 7:13 AM CDT 7:02 PM CDT
Nautical Twilight 6:37 AM CDT 7:38 PM CDT
Astronomical Twilight 6:01 AM CDT 8:14 PM CDT
Moon 9:56 PM CDT (10/17) 1:09 PM CDT (10/17)
Length of Visible Light 11h 49m
Length of Day
10h 47m
Waning Gibbous, 74% of the Moon is Illuminated
Oct 17
Waning Gibbous
Oct 19
Last Quarter
Oct 26
New
Nov 2
First Quarter
Nov 10
Full

Hourly Weather History & Observations

Time (CDT) Temp. Windchill Dew Point Humidity Pressure Visibility Wind Dir Wind Speed Gust Speed Precip Events Conditions
12:01 AM 39.2 °F 30.5 °F 26.6 °F 61% 29.79 in 10.0 mi West 16.1 mph 23.0 mph N/A   Clear
12:21 AM 39.2 °F 30.5 °F 26.6 °F 61% 29.79 in 10.0 mi West 16.1 mph 24.2 mph N/A   Clear
12:41 AM 39.2 °F 31.2 °F 28.4 °F 65% 29.79 in 10.0 mi West 13.8 mph 20.7 mph N/A   Clear
1:01 AM 37.4 °F 28.2 °F 28.4 °F 70% 29.78 in 10.0 mi West 16.1 mph 21.9 mph N/A   Clear
1:21 AM 37.4 °F 28.9 °F 28.4 °F 70% 29.79 in 10.0 mi West 13.8 mph 20.7 mph N/A   Clear
1:41 AM 37.4 °F 29.3 °F 28.4 °F 70% 29.79 in 10.0 mi West 12.7 mph 19.6 mph N/A   Clear
2:01 AM 37.4 °F 28.5 °F 28.4 °F 70% 29.78 in 10.0 mi West 15.0 mph - N/A   Clear
2:21 AM 37.4 °F 28.9 °F 28.4 °F 70% 29.78 in 10.0 mi West 13.8 mph 19.6 mph N/A   Clear
2:41 AM 37.4 °F 28.9 °F 28.4 °F 70% 29.78 in 10.0 mi West 13.8 mph 19.6 mph N/A   Clear
3:01 AM 37.4 °F 28.5 °F 28.4 °F 70% 29.79 in 10.0 mi West 15.0 mph 19.6 mph N/A   Clear
3:41 AM 37.4 °F 28.5 °F 28.4 °F 70% 29.79 in 10.0 mi West 15.0 mph 19.6 mph N/A   Clear
4:01 AM 35.6 °F 27.1 °F 28.4 °F 75% 29.78 in 10.0 mi West 12.7 mph - N/A   Clear
4:21 AM 35.6 °F 27.1 °F 28.4 °F 75% 29.78 in 10.0 mi West 12.7 mph - N/A   Clear
4:41 AM 35.6 °F - 28.4 °F 75% 29.78 in 10.0 mi Calm Calm - N/A   Clear
5:01 AM 35.6 °F - 28.4 °F 75% 29.78 in 10.0 mi Calm Calm - N/A   Clear
5:21 AM 35.6 °F - 28.4 °F 75% 29.78 in 10.0 mi Calm Calm - N/A   Clear
5:41 AM 35.6 °F 27.5 °F 28.4 °F 75% 29.78 in 10.0 mi West 11.5 mph - N/A   Clear
6:01 AM 35.6 °F 27.5 °F 28.4 °F 75% 29.78 in 10.0 mi West 11.5 mph - N/A   Clear
6:21 AM 33.8 °F - 28.4 °F 81% 29.79 in 10.0 mi Calm Calm - N/A   Clear
6:41 AM 33.8 °F 25.8 °F 28.4 °F 81% 29.79 in 10.0 mi West 10.4 mph - N/A   Clear
7:01 AM 33.8 °F 25.3 °F 28.4 °F 81% 29.79 in 10.0 mi West 11.5 mph 17.3 mph N/A   Clear
7:41 AM 33.8 °F 25.8 °F 28.4 °F 81% 29.79 in 10.0 mi West 10.4 mph - N/A   Clear
8:01 AM 33.8 °F 24.8 °F 28.4 °F 81% 29.80 in 10.0 mi West 12.7 mph - N/A   Clear
8:21 AM 33.8 °F 25.8 °F 28.4 °F 81% 29.80 in 10.0 mi West 10.4 mph - N/A   Clear
8:41 AM 35.6 °F 26.6 °F 28.4 °F 75% 29.81 in 10.0 mi West 13.8 mph - N/A   Clear
9:01 AM 37.4 °F 28.2 °F 28.4 °F 70% 29.80 in 10.0 mi West 16.1 mph 19.6 mph N/A   Clear
9:21 AM 37.4 °F 28.5 °F 28.4 °F 70% 29.81 in 10.0 mi West 15.0 mph - N/A   Clear
10:01 AM 39.2 °F 29.8 °F 28.4 °F 65% 29.81 in 10.0 mi West 18.4 mph 24.2 mph N/A   Clear
10:41 AM 42.8 °F 35.4 °F 28.4 °F 57% 29.82 in 10.0 mi WNW 15.0 mph 24.2 mph N/A   Clear
11:01 AM 42.8 °F 34.8 °F 28.4 °F 57% 29.82 in 10.0 mi West 17.3 mph 23.0 mph N/A   Clear
11:55 AM 44.6 °F 37.4 °F 26.6 °F 49% 29.82 in 10.0 mi WNW 16.1 mph 25.3 mph N/A   Clear
12:15 PM 46.4 °F 39.5 °F 26.6 °F 46% 29.83 in 10.0 mi WNW 17.3 mph 26.5 mph N/A   Clear
12:34 PM 46.4 °F 39.2 °F 26.6 °F 46% 29.82 in 10.0 mi WNW 18.4 mph 24.2 mph N/A   Clear
12:55 PM 46.4 °F 39.2 °F 26.6 °F 46% 29.83 in 10.0 mi WNW 18.4 mph 31.1 mph N/A   Clear
1:15 PM 48.2 °F - 26.6 °F 43% 29.83 in 10.0 mi WNW 20.7 mph 25.3 mph N/A   Clear
2:15 PM 50.0 °F - 26.6 °F 40% 29.82 in 10.0 mi WNW 18.4 mph 24.2 mph N/A   Clear
2:34 PM 50.0 °F - 26.6 °F 40% 29.82 in 10.0 mi WNW 17.3 mph 24.2 mph N/A   Clear
2:55 PM 50.0 °F - 26.6 °F 40% 29.82 in 10.0 mi WNW 21.9 mph 27.6 mph N/A   Clear
3:15 PM 51.8 °F - 26.6 °F 38% 29.82 in 10.0 mi NW 17.3 mph 26.5 mph N/A   Clear
3:35 PM 50.0 °F - 26.6 °F 40% 29.83 in 10.0 mi NW 19.6 mph 25.3 mph N/A   Clear
3:55 PM 50.0 °F - 26.6 °F 40% 29.83 in 10.0 mi NW 18.4 mph 25.3 mph N/A   Clear
4:15 PM 50.0 °F - 26.6 °F 40% 29.83 in 10.0 mi NW 10.4 mph 25.3 mph N/A   Clear
4:34 PM 48.2 °F - 26.6 °F 43% 29.84 in 10.0 mi WNW 18.4 mph 28.8 mph N/A   Clear
4:55 PM 48.2 °F - 28.4 °F 46% 29.85 in 10.0 mi WNW 8.1 mph 21.9 mph N/A   Clear
5:15 PM 48.2 °F - 28.4 °F 46% 29.86 in 10.0 mi NW 12.7 mph 24.2 mph N/A   Clear
5:35 PM 48.2 °F - 30.2 °F 50% 29.86 in 10.0 mi NW 13.8 mph - N/A   Clear
5:55 PM 44.6 °F 37.2 °F 28.4 °F 53% 29.87 in 10.0 mi NW 17.3 mph - N/A   Clear
6:15 PM 44.6 °F 38.1 °F 30.2 °F 57% 29.88 in 10.0 mi NW 13.8 mph 17.3 mph N/A   Clear
6:34 PM 41.0 °F 32.8 °F 30.2 °F 65% 29.88 in 10.0 mi NNW 16.1 mph 19.6 mph N/A   Clear
6:55 PM 39.2 °F 31.2 °F 30.2 °F 70% 29.89 in 10.0 mi NNW 13.8 mph - N/A   Clear
7:14 PM 37.4 °F 28.5 °F 30.2 °F 75% 29.89 in 10.0 mi NNW 15.0 mph - N/A   Clear
7:35 PM 37.4 °F 29.8 °F 30.2 °F 75% 29.90 in 10.0 mi NNW 11.5 mph - N/A   Clear
8:15 PM 37.4 °F 29.3 °F 30.2 °F 75% 29.91 in 10.0 mi NNW 12.7 mph - N/A   Clear
8:35 PM 37.4 °F 30.3 °F 30.2 °F 75% 29.91 in 10.0 mi NNW 10.4 mph - N/A   Mostly Cloudy
8:55 PM 37.4 °F 28.2 °F 30.2 °F 75% 29.91 in 10.0 mi NW 16.1 mph 20.7 mph N/A   Overcast
9:15 PM 37.4 °F 28.5 °F 30.2 °F 75% 29.91 in 10.0 mi NNW 15.0 mph - N/A   Overcast
9:34 PM 39.2 °F 31.2 °F 30.2 °F 70% 29.91 in 10.0 mi NNW 13.8 mph 19.6 mph N/A   Overcast
10:15 PM 39.2 °F 32.0 °F 32.0 °F 75% 29.92 in 10.0 mi NW 11.5 mph - N/A   Overcast
10:34 PM 37.4 °F 28.9 °F 30.2 °F 75% 29.92 in 10.0 mi NW 13.8 mph 19.6 mph N/A   Overcast
10:55 PM 37.4 °F 29.3 °F 32.0 °F 81% 29.92 in 10.0 mi NNW 12.7 mph - N/A   Overcast
11:15 PM 37.4 °F 29.3 °F 32.0 °F 81% 29.92 in 10.0 mi NNW 12.7 mph - N/A   Overcast
11:34 PM 37.4 °F 28.9 °F 32.0 °F 81% 29.93 in 10.0 mi NW 13.8 mph - N/A   Overcast
11:55 PM 37.4 °F 30.3 °F 32.0 °F 81% 29.93 in 10.0 mi NW 10.4 mph 17.3 mph N/A   Overcast